Regional Weather Roundup
Issued by NWS

Home | Current Version | Previous Version | Text Only | Print | Product List | Glossary Off
Versions: 1 2 3 4 5 6 7 8 9 10 11 12 13 14 15 16 17 18 19 20 21 22 23 24 25 26 27 28 29 30 31 32 33 34 35 36 37 38 39 40 41 42 43 44 45 46 47 48 49 50

000
ASUS43 KIND 260109
RWRIN

WEATHER ROUNDUP FOR INDIANA
NATIONAL WEATHER SERVICE INDIANAPOLIS IN
900 PM EDT WED MAY 25 2016

NOTE: "FAIR" INDICATES FEW OR NO CLOUDS BELOW 12,000 FEET WITH NO
SIGNIFICANT WEATHER AND/OR OBSTRUCTIONS TO VISIBILITY.

* - STATION DOES NOT REPORT WEATHER SUCH AS PRECIPITATION OR FOG.

+ - STATION NOT QUALITY CONTROLLED BY THE NATIONAL WEATHER SERVICE.
    USE DATA WITH CAUTION...ESPECIALLY DEWPOINT AND RELATIVE
    HUMIDITY OBSERVATIONS.

INZ001>003-010>013-019-020-260200-
NORTHWEST INDIANA

CITY           SKY/WX    TMP DP  RH WIND       PRES   REMARKS
GARY /AIRPORT/ CLOUDY    70  68  94 N9        29.94R
KNOX *+        CLOUDY    81  50  34 S10       29.93R
LA PORTE +     CLOUDY    81  64  55 SW9       29.94S
MICHIGAN CITY+ CLOUDY    70  66  88 CALM      29.94R
MONTICELLO +   CLOUDY    79  56  45 S9        29.96R
RENSSELAER +   PTCLDY    79  57  47 S14       29.95R
VALPARAISO     CLOUDY    79  64  60 S9        29.94R

$$

LMZ046-743>745-260200-
SOUTHERN LAKE MICHIGAN

STATION/POSITION TIME  TEMP    WIND        PRES    WAVE
                       AIR SEA DIR/SP/G            HT
                 (UTC) (F)     (DEG/KT/KT) (MB)    (FT)
BURNS HARBOR     0000   66      70/  5/  7 1013.2R
MICHIGAN CITY    0000   69     280/ 14/ 15   N/A
5NW MICH CITY    0000   65 60  320/  8/ 10   N/A     2

$$

INZ004-005-014>016-021>024-260200-
NORTH CENTRAL INDIANA

CITY           SKY/WX    TMP DP  RH WIND       PRES   REMARKS
ELKHART        CLOUDY    82  64  54 S8        29.94R
GOSHEN         MOCLDY    80  58  46 S9        29.95R
LOGANSPORT +   PTCLDY    79  61  53 SW15      29.98R
PERU/GRISSOM   PTCLDY    79  64  59 SW17G23   29.97R
ROCHESTER +    CLOUDY    81  63  54 S8        29.96R
SOUTH BEND     CLOUDY    80  61  52 SW9       29.94R
WARSAW +       CLEAR     79  61  53 S5        29.96R

$$

INZ006>009-017-018-025>027-260200-
NORTHEAST INDIANA

CITY           SKY/WX    TMP DP  RH WIND       PRES   REMARKS
ANGOLA *+      CLEAR     77  61  57 S5        29.97R
AUBURN +       PTCLDY    77  57  50 CALM      29.98R
FORT WAYNE     MOCLDY    78  59  51 SW8       29.98R
HUNTINGTON +   PTCLDY   N/A N/A N/A S5        29.97R

$$

INZ028-029-035-036-043>045-051>053-260200-
WEST CENTRAL INDIANA

CITY           SKY/WX    TMP DP  RH WIND       PRES   REMARKS
CRAWFORDSVL +  CLEAR     72  62  71 S10G17    29.98R
GREENCASTLE +  CLOUDY    72  64  78 S3        30.01R
LAFAYETTE      CLOUDY    77  60  55 S10G17    29.96R
TERRE HAUTE    CLOUDY    74  62  66 S14       29.99R

$$

INZ030>032-037>040-046>048-054>057-064-065-260200-
CENTRAL INDIANA

CITY           SKY/WX    TMP DP  RH WIND       PRES   REMARKS
CP ATTERBURY + PTCLDY    73  63  68 S6        30.01S
COLUMBUS       CLEAR     75  64  69 S16       30.01R
FISHERS *+     CLEAR     73  64  73 SW8       30.01
FRANKFORT +      N/A     77  51  40 SW6       30.00R
GREENWOOD *+   CLEAR     75  63  64 S8        30.02R
INDIANAPOLIS   MOCLDY    75  62  64 S10       29.99R
-EAGLE CREEK   CLEAR     76  62  62 VRB7      30.00R
KOKOMO *+      PTCLDY    79  61  53 SW15G22   29.98R
MARION +       PTCLDY    78  60  53 SW12      29.99R
SHELBYVILLE    PTCLDY    77  64  64 SW7       30.00R
ZIONSVILLE +   PTCLDY    75  62  64 SW10      30.01R

$$

INZ033-034-041-042-049-050-058-059-260200-
EAST CENTRAL INDIANA

CITY           SKY/WX    TMP DP  RH WIND       PRES   REMARKS
MUNCIE         CLEAR     81  61  50 S9G18     30.00R

$$

INZ060-061-067>069-081>083-085>088-260200-
SOUTHWEST INDIANA

CITY           SKY/WX    TMP DP  RH WIND       PRES   REMARKS
EVANSVILLE     CLOUDY    71  63  75 S12       30.02S
HUNTINGBURG *+ CLOUDY    70  63  78 S7        30.04S
WASHINGTON +   CLOUDY    72  65  79 S14       30.01R

$$

INZ062-063-066-070>080-084-089>092-260200-
SOUTH CENTRAL AND SOUTHEAST INDIANA

CITY           SKY/WX    TMP DP  RH WIND       PRES   REMARKS
BEDFORD +      CLOUDY    73  70  88 S7        30.02
BLOOMINGTON    PTCLDY    74  61  63 S14       30.01S
MADISON *+     CLOUDY    72  63  73 S7        30.07S
NORTH VERNON + CLOUDY    73  68  83 CALM      30.04
SEYMOUR +      CLEAR     75  64  69 S12       30.03R

$$




USA.gov is the U.S. government's official web portal to all federal, state and local government web resources and services.